Weather History for Cut Bank, MT

Change the Weather History Date:

Sunday, March 3, 2013

  Actual Average Record
Temperature  
Mean Temperature 31 °F 27 °F  
Max Temperature 42 °F 39 °F 65 °F (1986)
Min Temperature 20 °F 16 °F -32 °F (1960)
Degree Days  
Heating Degree Days 34 38  
Month to date heating degree days 74 114  
Since 1 July heating degree days 5813 6174  
Cooling Degree Days 0 0  
Month to date cooling degree days 0 0  
Year to date cooling degree days 0 0  
Moisture  
Dew Point 20 °F    
Average Humidity 64    
Maximum Humidity 96    
Minimum Humidity 32    
Precipitation  
Precipitation 0.01 in 0.02 in 0.28 in (1938)
Month to date precipitation 0.01 0.04  
Year to date precipitation 0.74 0.45  
Snow  
Snow 0.00 in - - ()
Snow Depth 0.00 in    
Sea Level Pressure  
Sea Level Pressure 29.83 in    
Wind  
Wind Speed 29 mph (NW)    
Max Wind Speed 51 mph    
Max Gust Speed 63 mph    
Visibility 4 miles    
Events Fog , Snow    
T = Trace of Precipitation, MM = Missing Value Source: NWS Daily Summary

Daily Weather History Graph

Daily Weather History Graph

Search for Another Location

Airport:

Trip Planner

Search our weather history database for the weather conditions in past years. The results will help you decide how hot, cold, wet, or windy it might be!

Date:

Astronomy

Mar. 03, 2013 Rise Set
Actual Time 7:06 AM MST 6:16 PM MST
Civil Twilight 6:35 AM MST 6:48 PM MST
Nautical Twilight 5:58 AM MST 7:24 PM MST
Astronomical Twilight 5:22 AM MST 8:01 PM MST
Moon 12:30 AM MST (3/3) 9:52 AM MST (3/3)
Length of Visible Light 12h 13m
Length of Day
11h 10m
Waning Gibbous, 63% of the Moon is Illuminated
Mar 3
Waning Gibbous
Mar 4
Last Quarter
Mar 11
New
Mar 19
First Quarter
Mar 27
Full

Hourly Weather History & Observations

Time (MST) Temp. Windchill Dew Point Humidity Pressure Visibility Wind Dir Wind Speed Gust Speed Precip Events Conditions
12:56 AM 39.0 °F 36.8 °F 28.0 °F 65% 29.73 in 10.0 mi South 3.5 mph 16.1 mph N/A   Clear
1:56 AM 37.9 °F 30.0 °F 28.9 °F 70% 29.69 in 10.0 mi WSW 12.7 mph - N/A   Clear
2:56 AM 37.0 °F 27.7 °F 28.9 °F 73% 29.68 in 10.0 mi West 16.1 mph - N/A   Clear
3:56 AM 37.9 °F 28.2 °F 30.9 °F 76% 29.65 in 10.0 mi SW 18.4 mph 28.8 mph N/A   Clear
4:56 AM 35.1 °F 26.9 °F 28.9 °F 78% 29.65 in 10.0 mi SSW 11.5 mph - N/A   Clear
5:56 AM 37.0 °F 31.0 °F 28.0 °F 70% 29.63 in 10.0 mi SSW 8.1 mph - N/A   Clear
6:56 AM 36.0 °F 23.5 °F 28.9 °F 76% 29.65 in 10.0 mi WSW 27.6 mph 33.4 mph N/A   Scattered Clouds
7:56 AM 36.0 °F 22.8 °F 18.0 °F 48% 29.62 in 10.0 mi WSW 31.1 mph 39.1 mph N/A   Clear
8:56 AM 37.0 °F 23.0 °F 10.9 °F 34% 29.60 in 10.0 mi WSW 39.1 mph 57.5 mph N/A   Clear
9:56 AM 37.9 °F 24.1 °F 12.0 °F 35% 29.63 in 10.0 mi West 40.3 mph 49.5 mph N/A   Clear
10:56 AM 39.0 °F 25.6 °F 12.9 °F 34% 29.62 in 10.0 mi WSW 40.3 mph 50.6 mph N/A   Clear
11:56 AM 37.9 °F 25.1 °F 15.1 °F 39% 29.62 in 10.0 mi WSW 33.4 mph 46.0 mph N/A   Scattered Clouds
12:56 PM 36.0 °F 23.2 °F 17.1 °F 46% 29.68 in 10.0 mi WNW 28.8 mph 44.9 mph N/A   Mostly Cloudy
1:02 PM 28.4 °F 13.3 °F 21.2 °F 74% 29.64 in 1.8 mi NNW 27.6 mph 40.3 mph 0.00 in Snow Light Snow
1:12 PM 28.4 °F 13.3 °F 24.8 °F 86% 29.64 in 0.8 mi NNW 27.6 mph 36.8 mph 0.00 in Snow Light Snow
1:26 PM 28.4 °F 13.5 °F 23.0 °F 80% 29.65 in 1.2 mi NW 26.5 mph 35.7 mph 0.00 in Snow Light Snow
1:44 PM 26.6 °F 8.5 °F 21.2 °F 80% 29.66 in 2.5 mi NNW 39.1 mph 44.9 mph 0.00 in Snow Light Snow
1:51 PM 26.6 °F 10.8 °F 21.2 °F 80% 29.67 in 7.0 mi NW 27.6 mph 44.9 mph 0.00 in Snow Light Snow
1:56 PM 27.0 °F 11.3 °F 21.9 °F 81% 29.74 in 4.0 mi NW 27.6 mph 39.1 mph 0.00 in Snow Light Snow
2:05 PM 26.6 °F 12.0 °F 21.2 °F 80% 29.67 in 2.0 mi NW 23.0 mph 40.3 mph 0.00 in Snow Light Snow
2:15 PM 26.6 °F 9.6 °F 21.2 °F 80% 29.67 in 3.0 mi NW 33.4 mph 39.1 mph 0.00 in Snow Light Snow
2:56 PM 28.0 °F 12.3 °F 21.9 °F 78% 29.76 in 5.0 mi NW 29.9 mph 47.2 mph 0.00 in Snow Light Snow
3:05 PM 26.6 °F 9.3 °F 21.2 °F 80% 29.69 in 2.5 mi NW 34.5 mph 49.5 mph 0.00 in Snow Light Snow
3:14 PM 28.4 °F 11.4 °F 21.2 °F 74% 29.70 in 7.0 mi NW 36.8 mph 50.6 mph 0.00 in Snow Light Snow
3:30 PM 26.6 °F 7.9 °F 21.2 °F 80% 29.69 in 1.8 mi NW 42.6 mph 56.4 mph 0.00 in Snow Light Snow
3:42 PM 26.6 °F 8.1 °F 21.2 °F 80% 29.70 in 3.0 mi NW 41.4 mph 54.1 mph 0.00 in Snow Light Snow
3:56 PM 26.1 °F 6.7 °F 21.0 °F 81% 29.79 in 4.0 mi NW 44.9 mph 57.5 mph 0.00 in Snow Light Snow
4:08 PM 26.6 °F 7.9 °F 21.2 °F 80% 29.71 in 2.5 mi NW 42.6 mph 62.1 mph 0.00 in Snow Light Snow
4:20 PM 24.8 °F 4.6 °F 21.2 °F 86% 29.72 in 1.8 mi NW 47.2 mph 58.7 mph 0.00 in Snow Light Snow
4:43 PM 24.8 °F 5.1 °F 21.2 °F 86% 29.73 in 0.8 mi NW 43.7 mph 56.4 mph 0.00 in Snow Light Snow
4:56 PM 24.1 °F 3.4 °F 19.9 °F 84% 29.84 in 0.5 mi NW 48.3 mph 57.5 mph 0.00 in Fog , Snow Light Snow
5:22 PM 24.8 °F 4.8 °F 19.4 °F 80% 29.79 in 0.2 mi NNW 46.0 mph 55.2 mph 0.00 in Fog , Snow Snow
5:43 PM 23.0 °F 4.1 °F 21.2 °F 93% 29.82 in 0.2 mi NNW 35.7 mph 50.6 mph N/A Fog , Snow Snow
5:56 PM 23.0 °F 3.7 °F 21.0 °F 92% 29.93 in 0.2 mi NNW 38.0 mph 51.8 mph 0.00 in Fog , Snow Snow
6:14 PM 23.0 °F 3.2 °F 19.4 °F 86% 29.85 in 0.5 mi NNW 40.3 mph 50.6 mph 0.01 in Fog , Snow Snow
6:46 PM 23.0 °F 3.2 °F 19.4 °F 86% 29.89 in 0.8 mi NNW 40.3 mph 52.9 mph 0.01 in Snow Light Snow
6:48 PM 23.0 °F 3.0 °F 19.4 °F 86% 29.89 in 1.0 mi NNW 41.4 mph 52.9 mph 0.01 in Snow Light Snow
6:56 PM 23.0 °F 3.2 °F 19.0 °F 85% 29.99 in 1.2 mi NNW 40.3 mph 50.6 mph 0.01 in Snow Light Snow
7:29 PM 21.2 °F 2.2 °F 19.4 °F 93% 29.93 in 2.5 mi NNW 33.4 mph 46.0 mph 0.00 in Snow Light Snow
7:33 PM 21.2 °F 2.4 °F 19.4 °F 93% 29.93 in 3.0 mi NNW 32.2 mph 42.6 mph 0.00 in Snow Light Snow
7:56 PM 21.9 °F 3.1 °F 19.0 °F 89% 30.04 in 4.0 mi NNW 33.4 mph 42.6 mph 0.00 in Snow Light Snow
8:21 PM 21.2 °F 2.7 °F 19.4 °F 93% 29.97 in 1.8 mi NNW 31.1 mph 40.3 mph 0.00 in Snow Light Snow
8:34 PM 21.2 °F 2.4 °F 19.4 °F 93% 29.98 in 1.2 mi North 32.2 mph 41.4 mph 0.00 in Snow Light Snow
8:56 PM 21.9 °F 3.9 °F 18.0 °F 85% 30.10 in 1.8 mi North 29.9 mph 36.8 mph 0.00 in Snow Light Snow
9:08 PM 21.2 °F 3.9 °F 17.6 °F 86% 30.01 in 2.0 mi North 26.5 mph 38.0 mph 0.00 in Snow Light Snow
9:30 PM 21.2 °F 7.3 °F 17.6 °F 86% 30.02 in 1.8 mi North 16.1 mph - 0.00 in Snow Light Snow
9:56 PM 19.9 °F 3.9 °F 17.1 °F 89% 30.15 in 1.5 mi North 20.7 mph 35.7 mph 0.00 in Snow Light Snow
10:11 PM 21.2 °F 6.0 °F 17.6 °F 86% 30.05 in 3.0 mi North 19.6 mph - 0.00 in Snow Light Snow
10:24 PM 21.2 °F 4.9 °F 17.6 °F 86% 30.05 in 6.0 mi North 23.0 mph 29.9 mph 0.00 in Snow Light Snow
10:56 PM 21.0 °F 7.1 °F 19.0 °F 92% 30.16 in 3.0 mi NNW 16.1 mph - 0.00 in Snow Light Snow
11:05 PM 21.2 °F 3.0 °F 19.4 °F 93% 30.06 in 2.0 mi NNW 29.9 mph 34.5 mph 0.00 in Snow Light Snow
11:21 PM 21.2 °F 4.5 °F 17.6 °F 86% 30.07 in 4.0 mi North 24.2 mph 33.4 mph 0.00 in Snow Light Snow
11:37 PM 19.4 °F 2.8 °F 17.6 °F 93% 30.08 in 2.0 mi North 21.9 mph 32.2 mph 0.00 in Snow Light Snow
11:43 PM 19.4 °F 1.8 °F 17.6 °F 93% 30.08 in 1.5 mi North 25.3 mph 31.1 mph 0.00 in Snow Light Snow
11:56 PM 19.9 °F 2.2 °F 16.0 °F 85% 30.19 in 2.5 mi North 26.5 mph 33.4 mph 0.00 in Snow Light Snow
11:59 PM 19.4 °F 2.5 °F 15.8 °F 86% 30.09 in 3.0 mi North 23.0 mph 33.4 mph 0.00 in Snow Light Snow